| time (UTC) | temp F | wind direction | speed MPH | gust MPH | rain 1hr in | rain 24hr in | rain mn in | humidity % | barometer mb |
| 20260903001320 | 64 | 203 | 4.0 | 6.0 | 0.00 | 0.00 | 0.00 | 81 | 1017.0 |
| 20260903000319 | 64 | 158 | 4.0 | 11.0 | 0.00 | 0.00 | 0.00 | 82 | 1017.0 |
| 20260902235323 | 63 | 180 | 3.0 | 5.0 | 0.00 | 0.00 | 0.00 | 82 | 1017.1 |
| 20260902234321 | 63 | 158 | 3.0 | 5.0 | 0.00 | 0.00 | 0.00 | 83 | 1017.1 |
| 20260902233321 | 63 | 135 | 3.0 | 6.0 | 0.00 | 0.00 | 0.00 | 84 | 1017.4 |
| 20260902232323 | 63 | 158 | 3.0 | 6.0 | 0.00 | 0.00 | 0.00 | 85 | 1017.4 |
| 20260902231323 | 62 | 180 | 1.0 | 3.0 | 0.00 | 0.00 | 0.00 | 86 | 1017.8 |
| 20260902230334 | 62 | 180 | 0.0 | 2.0 | 0.00 | 0.00 | 0.00 | 86 | 1017.8 |
| 20260902225322 | 62 | 180 | 0.0 | 2.0 | 0.00 | 0.00 | 0.00 | 86 | 1018.1 |
| 20260902224321 | 62 | 135 | 0.0 | 3.0 | 0.00 | 0.00 | 0.00 | 86 | 1018.1 |
| 20260902223318 | 62 | 113 | 1.0 | 2.0 | 0.00 | 0.00 | 0.00 | 85 | 1018.2 |
| 20260902222318 | 62 | 225 | 1.0 | 2.0 | 0.00 | 0.00 | 0.00 | 85 | 1018.2 |
| 20260902221317 | 62 | 180 | 1.0 | 2.0 | 0.00 | 0.00 | 0.00 | 84 | 1018.6 |
| 20260902220314 | 63 | 180 | 2.0 | 8.0 | 0.00 | 0.00 | 0.00 | 83 | 1018.6 |
| 20260902215306 | 63 | 90 | 2.0 | 4.0 | 0.00 | 0.00 | 0.00 | 83 | 1018.1 |
| 20260902214749 | 63 | 158 | 1.0 | 3.0 | 0.00 | 0.00 | 0.00 | 82 | 1018.1 |
| 20260902213306 | 63 | 180 | 1.0 | 5.0 | 0.00 | 0.00 | 0.00 | 82 | 1018.3 |
| 20260902212309 | 64 | 180 | 2.0 | 5.0 | 0.00 | 0.00 | 0.00 | 82 | 1018.3 |
| 20260902211311 | 64 | 180 | 2.0 | 3.0 | 0.00 | 0.00 | 0.00 | 81 | 1018.3 |
| 20260902210309 | 64 | 158 | 2.0 | 4.0 | 0.00 | 0.00 | 0.00 | 81 | 1018.3 |
| 20260902205308 | 64 | 203 | 2.0 | 4.0 | 0.00 | 0.00 | 0.00 | 80 | 1018.3 |
| 20260902204750 | 64 | 158 | 0.0 | 0.0 | 0.00 | 0.00 | 0.00 | 80 | 1018.3 |
| 20260902203303 | 64 | 180 | 2.0 | 5.0 | 0.00 | 0.00 | 0.00 | 81 | 1018.6 |
| 20260902202741 | 64 | 158 | 0.0 | 1.0 | 0.00 | 0.00 | 0.00 | 80 | 1018.6 |
| 20260902201300 | 65 | 180 | 1.0 | 4.0 | 0.00 | 0.00 | 0.00 | 80 | 1018.7 |
| 20260902200257 | 65 | 180 | 1.0 | 3.0 | 0.00 | 0.00 | 0.00 | 80 | 1018.7 |
| 20260902195256 | 65 | 180 | 1.0 | 4.0 | 0.00 | 0.00 | 0.00 | 80 | 1019.0 |
| 20260902194257 | 65 | 158 | 1.0 | 3.0 | 0.00 | 0.00 | 0.00 | 79 | 1019.0 |
| 20260902193257 | 65 | 180 | 1.0 | 3.0 | 0.00 | 0.00 | 0.00 | 79 | 1019.0 |
| 20260902192259 | 65 | 180 | 1.0 | 3.0 | 0.00 | 0.00 | 0.00 | 78 | 1019.0 |
| 20260902191257 | 66 | 158 | 1.0 | 3.0 | 0.00 | 0.00 | 0.00 | 78 | 1019.0 |
| 20260902190258 | 66 | 90 | 2.0 | 3.0 | 0.00 | 0.00 | 0.00 | 78 | 1019.0 |
| 20260902185254 | 66 | 180 | 1.0 | 4.0 | 0.00 | 0.00 | 0.00 | 77 | 1018.9 |
| 20260902184254 | 66 | 225 | 1.0 | 3.0 | 0.00 | 0.00 | 0.00 | 76 | 1018.9 |
| 20260902183254 | 66 | 135 | 2.0 | 4.0 | 0.00 | 0.00 | 0.00 | 76 | 1018.9 |
| 20260902182251 | 66 | 135 | 1.0 | 2.0 | 0.00 | 0.00 | 0.00 | 74 | 1018.9 |
| 20260902181252 | 67 | 225 | 0.0 | 3.0 | 0.00 | 0.00 | 0.00 | 73 | 1018.8 |
| 20260902180252 | 67 | 180 | 1.0 | 2.0 | 0.00 | 0.00 | 0.00 | 73 | 1018.8 |
| 20260902175252 | 67 | 225 | 1.0 | 4.0 | 0.00 | 0.00 | 0.00 | 72 | 1018.7 |
| 20260902174252 | 67 | 158 | 1.0 | 3.0 | 0.00 | 0.00 | 0.00 | 71 | 1018.7 |
| 20260902173253 | 67 | 225 | 0.0 | 1.0 | 0.00 | 0.00 | 0.00 | 70 | 1018.9 |
| 20260902172237 | 67 | 225 | 2.0 | 3.0 | 0.00 | 0.00 | 0.00 | 70 | 1018.9 |
| 20260902171236 | 68 | 158 | 1.0 | 3.0 | 0.00 | 0.00 | 0.00 | 69 | 1018.7 |
| 20260902170234 | 68 | 270 | 2.0 | 5.0 | 0.00 | 0.00 | 0.00 | 69 | 1018.7 |
| 20260902165235 | 68 | 248 | 3.0 | 4.0 | 0.00 | 0.00 | 0.00 | 67 | 1018.9 |
| 20260902164235 | 68 | 203 | 3.0 | 7.0 | 0.00 | 0.00 | 0.00 | 66 | 1018.9 |
| 20260902163235 | 69 | 248 | 3.0 | 6.0 | 0.00 | 0.00 | 0.00 | 65 | 1018.8 |
| 20260902162232 | 69 | 225 | 2.0 | 6.0 | 0.00 | 0.00 | 0.00 | 65 | 1018.8 |
| 20260902161237 | 68 | 270 | 2.0 | 5.0 | 0.00 | 0.00 | 0.00 | 65 | 1018.7 |
| 20260902160240 | 67 | 225 | 3.0 | 5.0 | 0.00 | 0.00 | 0.00 | 65 | 1018.7 |
| 20260902155237 | 67 | 248 | 2.0 | 4.0 | 0.00 | 0.00 | 0.00 | 64 | 1018.6 |
| 20260902154235 | 67 | 180 | 2.0 | 4.0 | 0.00 | 0.00 | 0.00 | 66 | 1018.6 |
| 20260902153227 | 67 | 180 | 2.0 | 4.0 | 0.00 | 0.00 | 0.00 | 66 | 1018.6 |
| 20260902152227 | 67 | 248 | 3.0 | 6.0 | 0.00 | 0.00 | 0.00 | 66 | 1018.6 |
| 20260902151707 | 67 | 180 | 4.0 | 6.0 | 0.00 | 0.00 | 0.00 | 67 | 1018.7 |
| 20260902150228 | 67 | 225 | 5.0 | 7.0 | 0.00 | 0.00 | 0.00 | 67 | 1018.7 |
| 20260902145217 | 69 | 45 | 3.0 | 0.0 | 0.00 | 0.00 | 0.00 | 66 | 1018.6 |
| 20260902144419 | 68 | 203 | 4.0 | 9.0 | 0.00 | 0.00 | 0.00 | 69 | 1018.9 |
| 20260902143855 | 69 | 248 | 3.0 | 9.0 | 0.00 | 0.00 | 0.00 | 67 | 1018.6 |
| 20260902142416 | 70 | 248 | 4.0 | 7.0 | 0.00 | 0.00 | 0.00 | 65 | 1018.6 |
| 20260902141910 | 71 | 68 | 4.0 | 6.0 | 0.00 | 0.00 | 0.00 | 64 | 1018.7 |
| 20260902140418 | 72 | 225 | 4.0 | 9.0 | 0.00 | 0.00 | 0.00 | 64 | 1018.7 |
| 20260902134405 | 71 | 248 | 4.0 | 9.0 | 0.00 | 0.00 | 0.00 | 65 | 1018.3 |
| 20260902133404 | 71 | 270 | 4.0 | 8.0 | 0.00 | 0.00 | 0.00 | 69 | 1018.4 |
| 20260902132401 | 69 | 225 | 3.0 | 9.0 | 0.00 | 0.00 | 0.00 | 72 | 1018.4 |
| 20260902131844 | 69 | 135 | 4.0 | 8.0 | 0.00 | 0.00 | 0.00 | 72 | 1018.7 |
| 20260902130358 | 68 | 180 | 4.0 | 7.0 | 0.00 | 0.00 | 0.00 | 73 | 1018.7 |
| 20260902125358 | 68 | 203 | 3.0 | 8.0 | 0.00 | 0.00 | 0.00 | 71 | 1018.9 |
| 20260902124352 | 70 | 180 | 5.0 | 8.0 | 0.00 | 0.00 | 0.00 | 67 | 1018.9 |
| 20260902123352 | 71 | 225 | 5.0 | 7.0 | 0.00 | 0.00 | 0.00 | 66 | 1019.0 |
| 20260902122343 | 71 | 180 | 4.0 | 7.0 | 0.00 | 0.00 | 0.00 | 65 | 1019.0 |
| 20260902121336 | 72 | 248 | 4.0 | 6.0 | 0.00 | 0.00 | 0.00 | 64 | 1018.8 |
| 20260902120311 | 73 | 293 | 4.0 | 10.0 | 0.00 | 0.00 | 0.00 | 63 | 1018.8 |
| 20260902115311 | 73 | 248 | 4.0 | 9.0 | 0.00 | 0.00 | 0.00 | 63 | 1018.9 |
| 20260902114748 | 73 | 270 | 4.0 | 10.0 | 0.00 | 0.00 | 0.00 | 61 | 1018.9 |
| 20260902113307 | 74 | 270 | 4.0 | 10.0 | 0.00 | 0.00 | 0.00 | 60 | 1018.9 |
| 20260902112739 | 73 | 248 | 4.0 | 9.0 | 0.00 | 0.00 | 0.00 | 62 | 1018.9 |
| 20260902111737 | 73 | 180 | 4.0 | 6.0 | 0.00 | 0.00 | 0.00 | 61 | 1019.0 |
| 20260902110257 | 73 | 293 | 4.0 | 6.0 | 0.00 | 0.00 | 0.00 | 62 | 1019.0 |
| 20260902105729 | 72 | 135 | 4.0 | 6.0 | 0.00 | 0.00 | 0.00 | 61 | 1019.2 |
| 20260902104245 | 72 | 135 | 4.0 | 11.0 | 0.00 | 0.00 | 0.00 | 60 | 1019.2 |
| 20260902103243 | 72 | 158 | 4.0 | 11.0 | 0.00 | 0.00 | 0.00 | 61 | 1019.2 |
| 20260902102243 | 72 | 203 | 5.0 | 8.0 | 0.00 | 0.00 | 0.00 | 65 | 1019.2 |
| 20260902101243 | 72 | 180 | 5.0 | 8.0 | 0.00 | 0.00 | 0.00 | 65 | 1019.1 |
| 20260902100243 | 72 | 180 | 5.0 | 8.0 | 0.00 | 0.00 | 0.00 | 65 | 1019.1 |
| 20260902095242 | 73 | 158 | 4.0 | 9.0 | 0.00 | 0.00 | 0.00 | 62 | 1019.1 |
| 20260902094241 | 72 | 225 | 4.0 | 7.0 | 0.00 | 0.00 | 0.00 | 65 | 1019.1 |
| 20260902093257 | 72 | 180 | 4.0 | 7.0 | 0.00 | 0.00 | 0.00 | 63 | 1019.0 |
| 20260902092259 | 73 | 225 | 3.0 | 5.0 | 0.00 | 0.00 | 0.00 | 66 | 1019.0 |
| 20260902091239 | 69 | 225 | 3.0 | 5.0 | 0.00 | 0.00 | 0.00 | 72 | 1018.7 |
| 20260902090240 | 67 | 180 | 3.0 | 9.0 | 0.00 | 0.00 | 0.00 | 71 | 1018.7 |
| 20260902085238 | 69 | 180 | 3.0 | 6.0 | 0.00 | 0.00 | 0.00 | 68 | 1018.2 |
| 20260902084237 | 70 | 225 | 4.0 | 7.0 | 0.00 | 0.00 | 0.00 | 70 | 1018.2 |
| 20260902083232 | 68 | 180 | 3.0 | 6.0 | 0.00 | 0.00 | 0.00 | 75 | 1018.2 |
| 20260902082232 | 66 | 225 | 2.0 | 4.0 | 0.00 | 0.00 | 0.00 | 78 | 1018.2 |
| 20260902081238 | 66 | 180 | 3.0 | 6.0 | 0.00 | 0.00 | 0.00 | 77 | 1018.0 |
| 20260902080228 | 62 | 158 | 2.0 | 0.0 | 0.00 | 0.00 | 0.00 | 83 | 1017.9 |
| 20260902075453 | 63 | 90 | 1.0 | 4.0 | 0.00 | 0.00 | 0.00 | 82 | 1018.2 |
| 20260902074455 | 62 | 248 | 2.0 | 5.0 | 0.00 | 0.00 | 0.00 | 82 | 1018.2 |
| 20260902073454 | 62 | 23 | 2.0 | 4.0 | 0.00 | 0.00 | 0.00 | 83 | 1017.9 |
| 20260902072934 | 61 | 248 | 2.0 | 4.0 | 0.00 | 0.00 | 0.00 | 84 | 1017.9 |
| 20260902071451 | 61 | 180 | 2.0 | 4.0 | 0.00 | 0.00 | 0.00 | 85 | 1017.8 |
| 20260902070452 | 60 | 135 | 2.0 | 4.0 | 0.00 | 0.00 | 0.00 | 86 | 1017.8 |
| 20260902065451 | 60 | 180 | 2.0 | 4.0 | 0.00 | 0.00 | 0.00 | 87 | 1018.0 |
| 20260902064934 | 59 | 225 | 2.0 | 4.0 | 0.00 | 0.00 | 0.00 | 88 | 1018.0 |
| 20260902063451 | 58 | 203 | 1.0 | 4.0 | 0.00 | 0.00 | 0.00 | 88 | 1017.9 |
| 20260902062449 | 58 | 180 | 1.0 | 4.0 | 0.00 | 0.00 | 0.00 | 88 | 1017.9 |
| 20260902061930 | 58 | 180 | 1.0 | 4.0 | 0.00 | 0.00 | 0.00 | 88 | 1017.7 |
| 20260902060452 | 58 | 248 | 1.0 | 2.0 | 0.00 | 0.00 | 0.00 | 89 | 1017.7 |
| 20260902055446 | 0 | 135 | 1.0 | 3.0 | 0.00 | 0.00 | 0.00 | 1017.9 | |
| 20260902054448 | 0 | 135 | 1.0 | 2.0 | 0.00 | 0.00 | 0.00 | 1017.9 | |
| 20260902053449 | 0 | 180 | 1.0 | 3.0 | 0.00 | 0.00 | 0.00 | 1017.8 | |
| 20260902052447 | 0 | 180 | 0.0 | 3.0 | 0.00 | 0.00 | 0.00 | 1017.8 | |
| 20260902051447 | 0 | 135 | 0.0 | 1.0 | 0.00 | 0.00 | 0.00 | 1017.9 | |
| 20260902050923 | 0 | 180 | 1.0 | 3.0 | 0.00 | 0.00 | 0.00 | 1017.9 | |
| 20260902045446 | 0 | 158 | 0.0 | 3.0 | 0.00 | 0.00 | 0.00 | 1017.8 | |
| 20260902044444 | 0 | 225 | 0.0 | 1.0 | 0.00 | 0.00 | 0.00 | 1017.8 | |
| 20260902043444 | 0 | 180 | 0.0 | 0.0 | 0.00 | 0.00 | 0.00 | 1017.8 | |
| 20260902042447 | 0 | 180 | 0.0 | 0.0 | 0.00 | 0.00 | 0.00 | 1017.8 | |
| 20260902041445 | 0 | 180 | 0.0 | 0.0 | 0.00 | 0.00 | 0.00 | 1018.0 | |
| 20260902040445 | 0 | 225 | 0.0 | 0.0 | 0.00 | 0.00 | 0.00 | 1018.0 | |
| 20260902035445 | 0 | 180 | 0.0 | 0.0 | 0.00 | 0.00 | 0.00 | 1018.1 | |
| 20260902034451 | 0 | 180 | 0.0 | 2.0 | 0.00 | 0.00 | 0.00 | 1018.1 | |
| 20260902033443 | 0 | 158 | 0.0 | 0.0 | 0.00 | 0.00 | 0.00 | 1018.1 | |
| 20260902032444 | 0 | 180 | 0.0 | 2.0 | 0.00 | 0.00 | 0.00 | 1018.1 | |
| 20260902031440 | 0 | 135 | 0.0 | 0.0 | 0.00 | 0.00 | 0.00 | 1018.6 | |
| 20260902030442 | 0 | 135 | 0.0 | 0.0 | 0.00 | 0.00 | 0.00 | 1018.6 | |
| 20260902025440 | 0 | 180 | 0.0 | 1.0 | 0.00 | 0.00 | 0.00 | 1019.2 | |
| 20260902024440 | 0 | 180 | 0.0 | 0.0 | 0.00 | 0.00 | 0.00 | 1019.2 | |
| 20260902023442 | 0 | 180 | 0.0 | 0.0 | 0.00 | 0.00 | 0.00 | 1018.7 | |
| 20260902022440 | 0 | 158 | 0.0 | 0.0 | 0.00 | 0.00 | 0.00 | 1018.7 | |
| 20260902021437 | 0 | 158 | 0.0 | 0.0 | 0.00 | 0.00 | 0.00 | 1018.6 | |
| 20260902020440 | 0 | 158 | 0.0 | 0.0 | 0.00 | 0.00 | 0.00 | 1018.6 | |
| 20260902015348 | 0 | 158 | 0.0 | 1.0 | 0.00 | 0.00 | 0.00 | 1018.9 | |
| 20260902013347 | 0 | 158 | 0.0 | 0.0 | 0.00 | 0.00 | 0.00 | 1018.7 | |
| 20260902012346 | 0 | 158 | 0.0 | 0.0 | 0.00 | 0.00 | 0.00 | 1018.7 | |
| 20260902011347 | 0 | 135 | 0.0 | 0.0 | 0.00 | 0.00 | 0.00 | 1018.6 | |
| 20260902010346 | 0 | 135 | 0.0 | 0.0 | 0.00 | 0.00 | 0.00 | 1018.6 | |
| 20260902005823 | 0 | 135 | 0.0 | 0.0 | 0.00 | 0.00 | 0.00 | 1018.8 | |
| 20260902004340 | 0 | 135 | 0.0 | 0.0 | 0.00 | 0.00 | 0.00 | 1018.8 | |
| 20260902003337 | 0 | 135 | 0.0 | 0.0 | 0.00 | 0.00 | 0.00 | 1019.2 | |
| 20260902002338 | 0 | 135 | 0.0 | 0.0 | 0.00 | 0.00 | 0.00 | 1019.2 | |
| 20260902001828 | 0 | 135 | 0.0 | 0.0 | 0.00 | 0.00 | 0.00 | 1018.9 |